Location: Peebles
(55.6412°N, 3.1714°W)
Time: 15:21:16
(UTC+01:00)

CHARLIE (NANOAVIONICS) - Visible Passes

Search period start: 03 July 2022 00:00
Search period end: 13 July 2022 00:00
Orbit: 510 x 524 km, 97.4° (Epoch: 02 July)

Date Brightness Start Highest point End Pass type
(mag) Time Alt. Az. Time Alt. Az. Time Alt. Az.
06 Jul ? 23:38:12 10° W 23:38:46 10° W 23:39:19 10° WNW visible
07 Jul ? 23:22:03 10° WSW 23:24:07 14° W 23:26:10 10° NW visible
08 Jul ? 23:06:45 10° SW 23:09:29 19° W 23:12:14 10° NW visible
09 Jul ? 22:51:41 10° SSW 22:54:52 25° W 22:58:04 10° NW visible
